RH
98 98 98 91 63 50 38 28 28 27 24 24 28 45 41 43 42 64 66 57 30 19 16 14 17 21 24 29 32 36 38 39 42 41 34 27 22 18 16 16 13 11 11 10
100 100 86 68 71 56 38 31 35 31 24 26 24 26 31 30 24 38 62 59 52 26 14 14 12 17 13 16 23 27 31 35 34 33 29 25 23 16 12 11 11 12 11 11
93 84 76 71 55 42 40 29 30 27 27 24 20 32 41 27 24 31 45 59 57 35 13 12 11 12 12 12 13 16 19 22 26 27 25 22 18 13 12 13 13 13 13 12
90 78 60 60 45 37 36 30 26 24 25 28 21 27 29 26 21 35 41 51 54 31 17 12 10 10 9 9 10 12 14 16 17 20 17 15 16 16 17 16 15 14 14 14
85 70 52 50 42 34 34 28 26 23 21 22 30 20 15 26 45 37 44 46 46 32 19 13 12 11 10 10 10 10 12 14 14 15 14 14 16 16 16 16 15 16 16 15
63 57 51 42 37 33 27 28 27 28 33 42 32 23 17 18 18 21 38 46 47 37 27 18 17 16 12 12 12 12 12 12 13 12 12 12 14 16 16 16 16 17 17 17
65 60 54 40 38 29 27 28 53 58 56 48 32 30 17 17 13 18 34 38 40 40 38 30 17 15 14 12 12 13 12 11 10 10 11 13 14 15 16 17 18 18 18 18
84 72 53 40 34 30 27 32 40 56 60 39 27 29 22 21 25 33 34 31 32 38 34 34 28 19 14 15 15 14 14 13 12 12 13 14 16 17 18 19 19 20 20 21
86 76 49 41 34 35 36 32 29 29 30 26 28 25 22 18 30 32 27 27 24 24 26 32 32 28 22 18 14 16 16 16 15 15 16 17 18 19 19 20 21 22 22 22
84 74 56 43 47 38 36 33 32 24 47 34 35 24 22 20 18 23 26 31 37 31 34 35 46 42 32 27 23 17 18 20 19 19 19 20 21 22 22 23 22 22 24 24
85 69 56 46 50 44 40 34 29 30 26 64 46 29 19 21 20 19 17 20 23 34 35 39 49 52 61 56 43 36 28 26 26 22 20 21 22 23 22 23 24 22 24 26
78 83 83 59 48 41 49 35 30 24 40 45 37 47 24 20 20 18 18 26 26 27 36 39 42 37 46 61 55 52 48 34 26 24 22 23 24 24 25 25 25 26 26 28
83 79 77 82 66 59 48 39 31 32 23 35 53 54 31 20 22 18 16 17 27 31 31 32 40 52 51 53 52 43 32 24 24 31 31 30 30 29 29 28 29 30 32 32
88 80 71 71 69 54 52 42 33 36 36 31 37 39 42 45 37 27 22 18 19 18 20 25 31 38 43 51 56 47 38 33 26 25 28 30 31 28 28 29 29 30 30 33
94 88 82 83 78 67 57 45 40 41 39 40 33 31 41 50 47 38 29 26 24 22 20 18 19 28 34 37 41 43 46 44 37 33 34 32 34 33 26 22 22 27 28 25
91 92 85 87 88 76 67 61 43 46 49 40 42 40 40 47 50 46 41 36 34 31 27 24 24 28 31 36 40 37 33 33 37 41 41 40 38 34 29 24 22 20 17 26
79 93 81 94 93 73 80 67 60 51 51 50 49 48 46 47 48 47 47 46 45 43 42 39 35 30 28 27 25 26 24 23 25 22 20 21 22 20 19 16 14 14 14 21
88 84 70 88 98 94 79 71 68 63 57 52 49 49 48 49 50 49 50 49 50 51 51 50 50 47 43 39 34 32 31 29 28 28 25 23 22 24 24 24 24 24 17 84
86 91 96 84 95 86 78 78 80 75 68 59 54 52 49 48 46 46 45 46 48 47 46 46 46 46 45 45 46 48 48 48 46 44 43 42 40 38 37 34 30 22 18 28
82 91 91 98 95 94 79 78 90 86 80 70 65 59 55 54 52 52 54 53 52 51 50 48 48 49 51 48 48 47 46 50 50 51 50 49 47 46 44 43 42 40 38 36
64 77 96 98 89 78 75 81 94 96 86 78 79 80 77 73 69 67 67 67 66 65 63 60 61 61 60 58 56 54 53 52 49 49 48 47 46 46 46 45 43 43 41 38
56 64 76 91 97 87 73 75 75 79 76 81 95 96 96 93 91 89 80 78 77 78 78 76 75 72 66 62 65 67 64 58 54 51 48 47 46 44 43 44 44 41 39 38
47 46 56 62 70 72 74 80 76 73 74 79 79 78 78 78 78 80 84 87 88 86 82 76 73 75 74 73 71 68 66 63 59 54 51 48 47 46 45 44 45 46 45 42
13 19 34 35 33 40 42 62 69 69 69 67 71 75 76 76 74 70 63 61 61 63 63 60 58 59 60 60 60 60 60 60 57 56 58 57 53 53 51 49 47 46 45 44
21 16 13 9 9 10 12 28 38 47 49 41 38 38 37 36 38 38 39 42 44 45 47 47 46 43 42 42 43 44 46 48 52 56 58 60 60 58 57 56 54 54 55 54
20 13 12 11 9 8 6 5 5 5 4 4 4 4 3 3 4 4 3 4 4 5 6 8 10 13 17 22 25 27 31 32 32 33 36 42 46 52 55 55 53 56 56 58
Wind_Speed
56 45 40 49 45 52 44 40 46 40 44 35 28 29 28 26 23 23 25 22 19 20 23 26 29 30 29 28 26 25 24 22 21 20 18 15 12 11 11 11 10 10 9 9
47 41 46 43 40 43 34 31 31 32 36 30 30 24 25 25 22 23 23 23 23 18 24 26 29 30 29 27 26 25 25 24 23 21 18 15 14 13 13 12 11 10 10 10
48 44 37 44 36 34 35 39 36 37 33 28 29 24 24 24 22 23 25 23 25 23 22 26 28 30 30 28 26 26 25 23 23 21 20 19 18 15 11 9 8 9 10 10
36 45 38 44 35 36 39 34 33 34 36 21 29 10 27 27 27 26 27 27 24 25 22 24 23 25 28 26 26 25 25 23 21 21 20 18 15 12 10 11 11 10 9 10
26 35 40 39 36 32 36 37 32 32 33 25 28 11 33 30 32 32 31 28 27 25 21 21 21 21 23 26 25 25 26 25 23 22 20 17 16 15 14 13 11 10 9 10
40 36 37 39 27 31 35 35 30 29 27 10 25 22 17 45 42 34 30 28 28 28 23 20 19 19 23 25 26 27 26 24 24 22 19 17 17 16 15 13 11 11 11 10
32 27 28 36 24 26 33 36 8 4 3 5 21 26 13 34 41 35 31 29 30 28 25 21 19 21 23 25 24 22 22 21 21 20 17 17 17 18 16 15 13 12 12 10
21 14 28 34 26 32 35 37 21 10 6 4 17 11 22 12 35 32 18 20 23 30 27 25 21 19 18 19 20 21 21 20 19 19 19 19 19 20 17 16 14 13 13 12
15 11 26 28 28 30 27 19 30 18 7 5 6 3 16 24 21 31 28 25 25 22 23 25 21 19 16 16 17 19 20 20 22 20 21 21 20 21 19 18 17 16 15 15
21 20 34 34 21 20 29 15 13 15 6 4 4 9 11 23 26 22 21 27 32 27 25 25 24 24 22 20 19 21 22 23 23 24 24 23 22 21 21 21 20 18 18 19
27 22 31 33 27 28 18 18 9 9 7 5 4 7 20 25 25 22 23 25 28 33 31 31 32 30 30 28 27 25 26 27 28 28 27 26 24 23 24 24 22 21 22 22
11 16 24 42 30 34 24 22 22 9 6 4 4 8 23 28 31 30 24 23 30 34 34 34 35 35 34 33 32 31 30 29 28 29 29 29 27 28 30 28 26 25 24 25
14 16 15 14 19 25 27 32 33 22 15 9 5 5 22 28 26 28 35 30 27 31 32 31 34 36 38 38 37 35 33 32 32 32 33 33 33 33 32 31 29 28 28 27
9 24 17 13 19 35 36 31 32 26 14 13 9 10 23 23 25 29 29 38 35 33 32 32 35 36 37 39 40 40 39 37 38 37 36 36 36 35 35 35 35 33 31 32
11 16 17 10 13 24 32 38 32 28 27 10 16 15 25 26 27 27 29 31 36 36 36 36 36 37 39 38 38 38 40 41 41 41 42 42 40 38 38 40 39 38 38 37
9 7 16 14 7 11 25 30 40 32 23 30 17 22 27 28 26 26 27 29 30 33 34 35 36 37 38 40 40 41 42 42 42 44 46 45 44 43 44 44 44 46 47 45
11 10 9 8 7 13 12 25 34 40 35 30 27 24 29 29 29 27 26 26 27 27 30 33 35 37 38 39 40 40 41 42 46 47 48 48 47 48 48 49 49 48 47 44
7 8 8 4 8 4 10 22 31 36 38 37 33 28 28 28 25 24 22 21 20 20 22 22 22 25 28 30 33 36 36 37 38 39 40 42 44 44 45 47 48 49 50 42
5 9 4 5 5 9 11 14 25 29 33 37 38 34 32 31 30 28 26 26 26 25 23 23 22 21 20 19 20 22 25 26 27 29 31 32 33 34 35 37 39 39 41 45
5 7 10 7 5 6 6 9 16 21 25 32 31 32 33 32 32 31 30 30 29 29 30 30 30 29 28 28 27 27 29 29 28 28 27 27 28 28 28 30 32 34 35 37
5 6 10 10 8 8 14 12 15 11 11 23 28 29 29 28 31 32 31 31 31 31 31 32 32 32 32 33 33 32 33 35 37 37 37 38 38 37 37 36 35 35 35 36
5 4 5 8 7 8 12 12 15 14 15 13 17 20 22 27 30 32 39 43 42 41 41 42 39 39 42 43 40 38 38 41 43 43 43 43 43 44 45 45 44 44 44 43
7 12 6 10 7 10 8 15 15 14 15 15 16 18 19 20 22 24 27 31 35 38 42 47 48 43 42 40 42 42 43 43 43 44 44 45 46 46 48 49 50 49 48 49
12 15 16 16 16 18 19 16 14 16 18 18 19 20 21 23 24 25 25 27 29 32 34 35 35 37 38 41 43 45 41 41 43 44 44 44 46 46 46 47 48 50 51 53
21 18 16 18 16 17 18 19 20 21 21 21 23 26 27 27 29 29 31 33 34 35 38 39 40 40 40 41 42 43 44 45 44 42 39 40 42 44 45 46 48 49 50 52
12 15 18 20 15 13 10 10 13 15 16 18 20 21 21 21 22 24 26 29 32 34 36 37 40 42 43 43 44 45 48 49 49 48 46 45 44 42 42 43 45 47 48 51
Wind_Direction
158 173 161 168 176 180 180 182 185 186 194 192 191 179 187 189 197 203 207 207 213 215 212 202 210 203 205 205 205 208 208 209 212 217 218 220 229 232 228 226 231 228 228 222
153 169 163 170 167 178 184 182 178 177 189 190 191 189 192 199 208 210 208 214 220 223 212 205 209 208 207 207 208 211 216 218 218 220 226 225 226 228 229 231 225 235 240 234
157 161 158 167 168 173 182 185 180 178 183 187 192 183 194 200 209 217 223 229 227 225 222 210 211 212 212 213 213 216 220 221 225 225 224 223 223 225 228 238 240 230 237 240
148 153 158 164 165 170 172 182 183 184 183 185 196 212 200 205 209 219 222 223 221 222 218 220 217 219 221 219 219 220 223 227 226 226 229 230 233 236 237 240 243 242 230 238
136 156 155 160 167 174 174 175 178 176 178 185 193 211 218 207 211 217 216 219 218 217 220 220 213 221 222 221 224 227 228 229 233 234 234 233 234 233 234 241 249 256 253 243
140 156 164 162 155 171 169 175 181 179 175 184 195 204 220 208 211 214 216 216 215 214 215 219 212 205 208 213 221 223 226 229 234 237 240 236 234 236 238 244 251 254 255 256
138 143 161 169 158 165 165 168 133 134 188 194 201 205 211 218 214 216 217 214 213 215 219 220 217 207 213 212 217 222 224 228 233 236 237 235 235 238 237 240 243 248 252 255
143 143 165 168 162 167 171 167 163 165 173 185 192 221 212 233 212 210 219 217 221 222 222 224 223 222 218 226 224 221 221 225 227 226 227 227 228 236 239 241 243 245 251 254
148 159 169 168 177 165 169 176 177 156 164 137 194 216 194 223 212 211 216 224 227 230 236 237 232 232 233 233 236 234 229 222 222 224 229 231 228 234 239 242 246 245 246 250
164 156 177 177 168 168 174 165 157 174 140 178 211 185 188 188 206 216 221 224 228 236 243 244 242 238 235 235 236 235 231 230 229 228 229 233 234 236 241 241 243 247 247 250
133 165 182 190 201 186 186 196 176 153 172 153 159 217 193 195 185 196 210 211 210 217 225 232 236 236 237 240 241 242 239 237 234 233 231 233 236 238 242 244 243 246 247 250
138 142 167 201 202 206 210 222 212 192 189 185 184 201 198 202 208 203 208 207 202 204 212 220 228 231 234 234 232 230 232 236 236 234 235 236 235 236 239 241 242 242 246 249
142 147 127 158 211 207 217 216 219 220 226 214 159 222 192 210 209 204 215 218 205 207 211 215 219 224 228 231 232 231 230 232 232 232 233 236 237 237 240 243 244 245 246 248
153 160 171 187 199 204 223 218 215 219 219 224 230 221 195 196 207 210 210 211 213 211 214 221 223 227 230 231 233 232 234 234 234 236 238 241 242 241 241 241 244 245 247 250
163 182 192 168 183 204 218 225 216 219 220 230 243 238 206 198 200 199 204 209 210 212 217 222 225 229 234 238 240 242 241 238 237 241 244 246 248 250 248 247 248 251 253 253
153 169 200 214 240 221 222 217 220 223 227 229 241 220 211 204 206 207 206 206 208 214 219 224 229 232 234 239 242 244 246 246 245 245 247 247 248 252 251 250 252 254 255 253
178 181 182 211 216 211 219 215 216 224 223 226 230 221 211 209 204 205 208 212 214 215 220 223 227 231 233 237 243 247 249 251 250 248 249 251 252 253 256 258 257 258 256 253
202 193 204 193 170 190 231 216 211 219 222 224 228 224 225 215 205 204 203 206 211 213 218 222 226 231 236 240 242 246 249 250 252 254 252 252 252 252 253 256 258 258 258 252
198 188 219 202 220 277 266 245 221 213 217 222 226 229 226 225 228 231 233 231 226 226 227 228 233 238 241 247 251 249 248 248 248 248 250 250 251 253 254 256 257 258 260 254
219 211 200 198 177 220 248 233 237 224 235 223 223 224 229 231 234 239 238 237 239 240 240 240 244 247 249 252 256 259 253 249 245 244 244 245 248 250 251 252 254 257 257 256
238 228 218 215 228 245 243 226 212 194 241 228 228 230 233 239 245 250 252 251 251 253 253 252 252 254 258 261 261 262 261 259 257 256 253 252 253 255 256 257 258 258 259 259
254 235 213 210 232 254 233 224 211 225 236 229 234 239 238 244 248 251 258 265 269 269 268 270 270 270 270 271 270 267 264 262 261 261 260 260 260 260 259 259 259 260 260 261
242 227 237 230 230 251 264 224 220 230 237 241 240 244 249 249 248 249 252 256 259 261 263 265 267 271 275 274 272 270 269 268 265 263 262 261 260 260 260 260 260 260 259 258
265 255 242 248 248 253 260 259 251 246 249 253 254 254 253 256 256 259 257 257 258 262 264 264 264 266 267 269 272 275 272 269 268 267 266 265 264 261 260 260 259 257 257 257
272 273 273 276 271 266 260 251 255 256 258 263 264 265 267 267 266 266 267 268 267 265 265 266 267 265 264 264 265 267 269 271 272 272 268 265 263 263 262 261 259 257 256 255
294 277 266 274 278 270 268 252 251 256 259 262 267 270 271 271 271 270 269 269 270 270 270 269 269 271 271 269 267 267 267 268 269 269 269 269 268 265 262 260 259 260 259 257